Location: Unspecified
(41.1850°N, 73.2650°W)
Time: 04:38:57
(UTC+00:00)

EXPRESS MD2 - Pass Details

Date: 14 December 2025
Orbit: 258 x 2834 km, 49.8° (Epoch: 13 January)

Event Time Altitude Azimuth Distance (km) Brightness Sun altitude
Rises 22:08:16 0° 241° (WSW) 1,852 8.5 -8.1°
Reaches altitude 10° 22:09:54 10° 244° (WSW) 1,104 6.6 -8.4°
Maximum altitude 22:12:11 73° 329° (NNW) 345 2.3 -8.8°
Enters shadow 22:14:56 13° 55° (NE) 1,347 4.7 -9.2°
